User: anonymous   Login
Location: CNYAC Observatory
(43.2150°N, 74.9500°W)
Time: 18:27:41
(UTC-04:00)
Language:

Cosmos 1300 Rocket - Orbit

View from above orbital plane
View from above orbital plane
View from above satellite
View from above satellite

Ground track
Ground track

The orbit data is extracted from the following two-line orbital elements,

1 12786U 81082B   17085.91005172 +.00000099 +00000-0 +88207-5 0  9997
2 12786 082.4895 045.2454 0017985 161.7113 198.4753 14.84672463901503
Epoch (UTC): 26 March 2017 21:50:28
Eccentricity: 0.0017985
inclination: 82.4895°
perigee height: 602 km
apogee height: 627 km
right ascension of ascending node: 45.2454°
argument of perigee: 161.7113°
revolutions per day: 14.84672463
mean anomaly at epoch: 198.4753°
orbit number at epoch: 90150

The dashed part of the orbit path shows where the satellite is in the earth's shadow,  

DLR